T742 TJSJ-TFFJ

Flight info

Callsign T742
Flight time N/A
Altitude 3000
Route SJU RTE2 COY R760 PJM
Aircraft C172/L-SFG/C

Departure

Time 2026-05-05 16:52
Airport Luis Munoz Marin International Airport (TJSJ)

Arrival

Time N/A
Airport St. Jean Airport (TFFJ)
Time Latitude Longitude Altitude Speed Heading
2026-05-05 16:40 18.44248 -65.99794 13 ft 0 kts 290°
2026-05-05 16:44 18.44248 -65.99793 13 ft 1 kts 288°
2026-05-05 16:44 18.44260 -65.99812 13 ft 2 kts 303°
2026-05-05 16:44 18.44278 -65.99835 13 ft 7 kts 320°
2026-05-05 16:44 18.44301 -65.99892 13 ft 17 kts 250°
2026-05-05 16:45 18.44262 -65.99958 13 ft 0 kts 238°
2026-05-05 16:45 18.44258 -65.99964 13 ft 9 kts 238°
2026-05-05 16:45 18.44192 -66.00137 14 ft 31 kts 244°
2026-05-05 16:45 18.44179 -66.00191 14 ft 15 kts 310°
2026-05-05 16:46 18.44193 -66.00213 14 ft 4 kts 291°
2026-05-05 16:46 18.44219 -66.00229 14 ft 0 kts 343°
2026-05-05 16:46 18.44218 -66.00343 14 ft 35 kts 234°
2026-05-05 16:46 18.44151 -66.00501 14 ft 12 kts 236°
2026-05-05 16:47 18.44124 -66.00566 15 ft 19 kts 246°
2026-05-05 16:47 18.44077 -66.00672 15 ft 4 kts 243°
2026-05-05 16:47 18.44061 -66.00705 15 ft 12 kts 253°
2026-05-05 16:47 18.44049 -66.00741 15 ft 18 kts 244°
2026-05-05 16:48 18.43969 -66.00936 14 ft 21 kts 251°
2026-05-05 16:48 18.43940 -66.01004 14 ft 0 kts 243°
2026-05-05 16:48 18.43924 -66.01043 14 ft 14 kts 248°
2026-05-05 16:48 18.43914 -66.01067 14 ft 2 kts 244°
2026-05-05 16:49 18.43924 -66.01047 14 ft 4 kts 243°
2026-05-05 16:49 18.43936 -66.01024 14 ft 1 kts 242°
2026-05-05 16:49 18.43904 -66.01074 14 ft 0 kts 241°
2026-05-05 16:50 18.43847 -66.01301 13 ft 27 kts 232°
2026-05-05 16:50 18.43887 -66.01382 12 ft 24 kts 340°
2026-05-05 16:50 18.43951 -66.01302 12 ft 7 kts 66°
2026-05-05 16:50 18.43998 -66.01158 13 ft 48 kts 43°
2026-05-05 16:51 18.44174 -66.00813 16 ft 69 kts 74°
2026-05-05 16:51 18.44369 -66.00264 213 ft 78 kts 66°
2026-05-05 16:51 18.44590 -65.99688 391 ft 92 kts 63°
2026-05-05 16:51 18.44946 -65.99054 468 ft 109 kts 56°
2026-05-05 16:52 18.45412 -65.98399 578 ft 110 kts 46°
2026-05-05 16:52 18.45942 -65.97826 768 ft 106 kts 49°
2026-05-05 16:52 18.46270 -65.97773 729 ft 105 kts 189°
2026-05-05 16:52 18.45542 -65.97399 585 ft 124 kts 154°
2026-05-05 16:53 18.44729 -65.97175 688 ft 113 kts 180°
2026-05-05 16:53 18.43942 -65.97144 699 ft 122 kts 170°
2026-05-05 16:53 18.43254 -65.97132 1053 ft 86 kts 230°
2026-05-05 16:53 18.43446 -65.97846 680 ft 124 kts 317°
2026-05-05 16:54 18.44209 -65.98302 590 ft 122 kts 334°
2026-05-05 16:54 18.44840 -65.98726 507 ft 96 kts 277°
2026-05-05 16:54 18.44713 -65.99407 101 ft 90 kts 253°
2026-05-05 16:54 18.44506 -65.99937 14 ft 59 kts 249°